Location: Newark
(23.3970°S, 47.6010°W)
Time: 14:56:12
(UTC+00:00)

Tiros 1 despin weight - Pass Details

Date: 27 February 2020
Orbit: 593 x 642 km, 48.2° (Epoch: 31 March)

Event Time Altitude Azimuth Distance (km) Brightness Sun altitude
Rises 22:18:46 0° 253° (WSW) 2,951 ? -9.3°
Reaches altitude 10° 22:22:34 10° 284° (WNW) 2,027 ? -10.1°
Maximum altitude 22:24:19 12° 306° (NW) 1,891 ? -10.5°
Drops below altitude 10° 22:26:03 10° 328° (NNW) 2,011 ? -10.9°
Sets 22:29:48 0° 359° (N) 2,897 ? -11.7°
